Hundvaag 1 weather for Feb 1990
Month no. 32
Obs.
Da.
Temp. Dew Point Precip. Wind
Speed
Wind gusts Cloud cover Press. Humidity Wind dir. Sunny OPT
01.02.1990 5,8   11,1                
02.02.1990 5,4   6,6                
03.02.1990 6,0   10,9                
04.02.1990 6,1   5,8                
05.02.1990 8,0   13,8                
06.02.1990 8,0   0,0                
07.02.1990 7,0   2,5                
08.02.1990 5,2   9,2                
09.02.1990 3,7   7,1                
10.02.1990 5,7   1,4                
11.02.1990 3,9   8,3                
12.02.1990 3,8   8,1                
13.02.1990 2,2   0,4                
14.02.1990 2,0   6,1                
15.02.1990 0,0   0,1                
16.02.1990 0,2   0,5                
17.02.1990 2,2   0,2                
18.02.1990 4,3   18,6                
19.02.1990 4,9   1,1                
20.02.1990 6,7   9,2                
21.02.1990 5,0   2,0                
22.02.1990 5,1   5,1                
23.02.1990 6,7   2,5                
24.02.1990 5,6   15,4                
25.02.1990 6,7   28,5             1  
26.02.1990 3,6   11,5                
27.02.1990 2,0   14,8                
28.02.1990 2,4   15,3                
                       
                       
                       
Avrg/Sum 4,6   215,9             1